Theta_e
315 315 315 315 315 316 315 314 314 315 315 314 314 314 314 314 314 314 315 315 315 315 315 317 319 321 321 320 321 324 325 322 330 341 351 351 349 350 351 349 348 346 344 347
314 315 316 317 316 316 315 315 315 316 316 315 314 315 315 314 314 316 317 316 316 318 315 316 317 321 321 321 321 322 325 325 324 330 338 352 348 347 349 351 350 348 345 344
316 316 317 318 318 317 316 316 316 316 316 315 314 315 315 314 317 320 319 318 318 318 317 317 316 319 321 322 321 323 326 325 326 328 336 345 351 349 348 349 350 348 346 345
317 317 318 318 318 317 317 317 317 316 315 316 315 316 314 319 320 320 320 320 320 317 317 316 317 316 321 322 322 323 327 327 328 330 337 346 352 350 348 348 348 349 346 345
319 318 318 318 316 317 317 317 316 316 315 314 315 315 316 319 321 322 321 321 320 320 317 318 316 318 322 322 324 327 328 329 328 332 335 348 350 351 349 348 348 349 347 346
318 317 316 316 317 317 316 315 314 315 315 317 318 323 322 320 325 322 322 322 321 320 319 319 319 322 322 323 323 326 329 326 325 325 327 339 350 351 350 349 348 348 348 348
319 318 317 317 316 315 314 313 317 320 316 319 317 319 320 323 322 322 321 320 318 319 318 321 321 324 324 325 322 325 330 330 327 327 331 333 347 351 349 349 347 347 348 345
320 321 318 317 316 314 315 315 323 322 320 318 318 320 324 322 319 319 321 319 318 319 318 319 321 319 322 324 325 326 329 330 331 329 331 338 338 350 350 349 347 345 346 346
320 321 318 317 315 315 316 315 318 315 320 323 320 320 323 319 320 320 320 321 319 319 318 318 319 322 322 324 324 326 331 335 336 337 338 344 345 349 348 350 348 347 345 346
320 320 318 317 315 316 314 316 322 320 326 322 316 317 325 322 322 321 321 319 318 317 317 317 317 319 319 320 323 322 328 328 337 339 339 341 343 344 346 346 347 344 344 346
319 317 319 316 316 316 314 319 318 320 320 317 322 316 318 316 318 317 317 315 314 313 313 316 317 318 317 318 322 323 326 327 327 334 336 337 337 340 341 342 345 346 345 343
319 318 318 318 315 314 315 319 318 320 316 315 317 316 313 316 316 316 313 312 312 313 313 313 313 315 317 318 320 321 322 324 326 326 331 332 336 336 337 340 344 343 344 342
317 313 318 317 314 315 318 317 317 314 316 319 317 317 315 315 316 314 313 313 312 313 313 313 313 313 315 317 318 320 320 322 324 324 325 333 335 334 331 336 340 341 342 341
318 316 318 320 318 316 318 319 318 319 322 321 319 318 319 316 314 312 310 309 309 309 309 311 313 312 312 316 317 321 320 321 322 323 323 326 331 327 321 335 340 341 340 338
317 319 319 318 318 318 318 318 319 322 319 321 320 318 316 314 312 311 310 309 308 309 309 310 311 310 309 311 315 314 318 321 320 322 322 323 326 334 332 336 338 337 332 330
317 318 318 320 320 320 321 320 319 319 319 318 318 318 315 312 311 311 310 308 307 307 308 308 309 309 309 310 312 314 314 319 320 320 321 323 324 335 333 334 335 332 328 327
315 316 319 324 321 322 320 320 320 320 319 316 316 315 312 313 312 310 307 306 306 306 307 307 307 307 307 308 309 313 313 313 321 319 319 322 323 331 328 329 330 327 322 323
317 321 322 323 321 321 317 319 319 319 318 317 316 315 312 310 308 306 305 304 305 306 306 306 306 306 306 307 308 311 311 311 319 320 319 322 324 328 325 323 323 321 320 318
318 321 322 322 317 318 318 320 314 315 317 314 310 310 309 307 306 305 304 305 304 304 303 303 303 304 304 306 308 309 311 312 316 321 318 321 322 328 325 322 320 319 318 315
314 316 319 317 319 321 319 319 317 317 319 312 310 308 307 305 305 306 303 302 302 302 302 303 302 302 304 304 307 309 310 312 314 321 318 320 324 327 323 320 318 316 314 311
315 315 318 317 317 318 318 318 316 315 316 309 309 306 304 304 303 302 301 301 301 302 305 308 309 304 303 304 306 309 310 311 313 320 319 322 327 323 319 316 314 312 310 309
314 313 312 319 316 314 316 316 317 312 308 308 304 304 303 301 301 301 301 301 303 306 309 311 309 309 303 304 305 308 310 312 313 319 322 326 323 318 316 313 309 308 308 307
313 314 317 317 314 314 315 315 311 309 304 303 302 302 301 300 300 300 301 302 306 307 310 308 306 307 304 304 305 307 311 312 313 319 324 324 319 316 314 311 308 307 306 305
311 311 313 314 315 315 316 310 308 306 303 303 302 301 300 299 300 301 301 304 307 309 313 307 304 304 304 305 306 307 310 313 314 321 323 320 315 313 312 309 307 306 305 305
310 311 315 316 314 314 313 309 307 305 303 302 301 300 299 300 299 299 300 305 307 311 314 309 307 305 305 306 307 309 311 313 318 322 320 316 313 312 309 307 306 306 305 304
311 316 317 315 312 312 310 307 305 303 302 301 299 299 299 300 298 299 301 305 307 310 310 311 311 308 307 306 308 309 311 316 320 321 317 314 311 310 306 304 303 303 303 302
Wind_Speed
8 4 7 12 7 6 6 9 13 17 8 13 14 17 24 16 18 21 21 21 20 19 18 25 28 34 32 30 26 21 31 33 27 25 26 28 37 39 30 30 42 43 42 37
7 7 12 19 16 8 9 13 11 12 13 14 14 20 25 21 17 9 12 11 11 6 10 17 23 28 34 34 31 30 32 33 33 30 28 30 29 39 40 33 29 44 45 41
7 11 17 12 16 16 12 10 6 10 15 16 12 19 19 16 6 8 13 11 12 10 9 11 14 22 29 32 33 31 35 37 36 30 26 27 27 29 36 35 27 42 45 43
8 9 16 13 16 14 14 7 9 12 13 17 3 14 18 8 11 15 17 21 23 16 9 8 9 9 25 32 35 32 34 37 37 33 29 29 24 21 28 35 32 34 44 44
15 13 14 12 9 11 7 9 9 12 15 10 14 7 7 7 8 14 15 21 25 20 9 8 9 12 26 34 32 32 35 40 38 35 32 29 25 26 33 33 38 35 39 35
10 8 7 10 17 14 21 14 18 7 6 8 3 1 4 4 5 6 16 16 16 18 18 13 11 27 23 28 32 31 37 40 38 36 33 29 28 29 27 30 31 36 33 31
7 7 9 14 23 16 14 9 7 5 3 7 5 9 6 8 11 8 9 14 11 15 15 17 17 14 26 30 15 29 35 35 41 37 32 31 27 29 29 31 33 28 22 27
5 7 8 20 13 8 9 5 3 5 3 15 14 6 3 4 13 15 8 12 12 11 7 11 16 15 23 30 25 19 28 32 37 36 33 32 32 27 27 28 29 31 30 32
3 5 16 10 11 7 7 6 1 2 5 5 5 1 2 11 13 11 10 9 10 7 9 10 13 15 13 18 20 24 4 17 36 36 33 29 30 26 23 25 21 24 26 32
5 10 2 9 14 8 15 7 2 2 3 5 5 6 3 4 4 5 5 8 9 10 8 9 9 13 23 27 20 21 16 7 14 26 30 30 27 23 21 17 17 17 22 27
4 3 8 7 4 18 13 3 3 3 3 3 5 4 7 7 4 6 4 8 13 14 10 8 8 14 22 25 16 7 13 12 8 23 23 23 25 22 18 15 13 12 15 17
3 2 5 15 22 17 12 0 15 3 8 5 6 16 11 1 12 8 7 9 11 13 17 14 10 19 17 24 17 12 13 10 10 10 10 18 21 14 11 12 11 10 10 13
4 0 6 11 6 7 4 12 16 13 3 11 6 10 5 13 11 11 12 14 16 19 15 14 16 13 14 18 20 8 8 10 10 11 15 5 19 19 14 6 8 10 14 19
8 6 8 12 17 13 21 20 20 15 5 7 12 20 16 7 8 10 12 12 13 14 16 17 16 11 13 15 19 18 8 8 9 14 12 10 21 25 16 14 13 16 19 23
4 5 7 13 17 18 20 24 25 20 17 8 10 11 12 6 6 10 16 21 25 24 20 16 14 12 14 21 16 17 24 13 9 11 12 14 16 23 19 23 22 23 28 27
4 5 6 16 16 19 24 22 14 12 9 7 8 16 13 6 8 15 20 22 24 21 22 19 16 18 17 18 22 13 21 20 12 11 14 14 15 17 21 28 31 30 36 38
10 10 7 15 13 15 12 5 6 7 6 2 9 18 6 13 15 24 24 24 23 20 19 19 16 15 23 22 23 14 17 22 15 14 18 9 14 16 23 32 35 34 35 35
9 6 4 10 7 5 4 5 4 8 10 14 15 9 8 16 21 25 22 19 19 17 18 19 16 16 23 27 24 14 17 22 19 16 17 6 8 22 27 30 35 32 35 36
10 5 5 3 3 14 8 4 3 4 19 6 8 17 17 20 18 31 4 13 17 20 20 21 28 26 26 23 23 19 18 18 22 17 18 6 4 27 28 30 34 34 34 31
13 1 2 4 9 12 1 2 5 6 7 5 12 16 17 17 13 20 24 24 26 24 24 22 29 27 26 26 23 21 20 18 19 18 19 6 5 31 29 32 33 31 35 33
7 5 6 4 5 7 2 14 4 3 8 10 13 15 17 13 13 22 25 27 22 25 27 34 27 22 27 25 21 19 20 20 25 15 14 5 6 32 35 32 32 36 35 35
5 4 3 2 4 7 16 16 4 5 5 11 10 15 17 19 21 20 22 23 23 24 24 20 9 15 26 25 22 17 14 23 25 17 14 17 24 30 35 39 34 34 37 35
5 3 5 4 5 14 13 2 3 2 4 7 12 17 18 19 20 21 19 22 22 24 19 5 7 7 18 22 22 13 16 22 22 19 22 24 30 31 34 36 36 36 34 35
8 12 6 14 3 17 13 8 6 4 4 12 14 17 18 20 20 21 19 18 18 20 7 5 6 5 8 16 21 20 16 25 19 20 27 29 32 31 31 31 31 35 33 33
13 14 9 8 16 15 4 7 8 10 10 16 16 17 18 19 20 18 18 18 16 14 12 5 7 8 10 12 18 20 14 25 17 27 28 29 32 31 29 27 27 29 30 40
4 5 4 11 16 6 8 10 11 11 15 16 17 18 17 16 17 18 17 15 13 11 15 10 4 9 13 15 13 16 17 21 25 27 26 30 29 29 30 34 33 27 34 32
Wind_Direction
299 315 253 258 290 311 321 304 288 290 310 354 332 318 306 316 301 289 283 274 265 255 252 255 259 239 221 223 225 223 214 212 204 205 218 223 224 236 225 211 203 204 201 203
337 313 325 322 310 322 296 276 294 304 337 326 322 300 292 293 281 306 305 305 283 277 260 245 239 241 223 219 222 224 212 209 212 207 215 222 225 231 236 222 206 203 200 203
311 292 304 312 317 310 293 301 303 312 319 295 289 277 290 288 319 298 293 276 299 278 286 259 235 227 231 223 222 220 208 209 208 212 213 224 229 234 227 233 229 201 200 204
280 298 297 302 286 285 285 303 324 315 312 292 26 307 310 343 348 338 325 338 330 281 282 293 243 213 220 223 223 213 205 204 204 210 209 214 212 221 227 228 231 212 203 201
283 282 282 294 315 316 305 323 322 318 303 321 309 269 322 351 336 342 341 340 344 307 285 309 342 264 221 217 208 198 198 197 202 208 211 209 208 219 232 222 223 218 205 196
284 338 342 344 1 5 344 339 324 339 320 286 318 79 272 306 276 328 342 333 314 353 346 9 7 18 353 217 205 194 191 196 204 210 215 213 210 221 229 227 218 217 213 198
340 316 316 35 348 343 347 343 327 326 354 257 313 327 289 346 316 284 311 325 341 6 10 2 1 11 16 10 225 190 189 192 202 207 216 217 219 227 233 229 226 217 198 209
326 333 348 348 339 314 330 327 141 271 293 295 293 246 147 324 340 310 28 337 340 3 6 35 12 339 28 347 14 3 194 193 199 205 212 218 218 225 234 240 236 232 210 206
357 247 327 322 356 346 298 322 244 137 239 276 250 287 42 24 357 333 349 328 332 341 356 23 23 346 343 324 348 13 89 206 191 201 204 206 214 217 225 235 235 234 227 215
337 310 280 326 326 290 333 280 0 44 306 285 281 303 212 340 242 325 302 325 332 353 7 357 16 333 328 332 358 313 21 82 215 206 197 208 212 216 222 229 228 226 232 232
15 130 288 331 305 305 309 13 346 202 215 241 303 263 211 231 1 322 349 6 359 358 349 345 334 329 322 314 315 354 342 28 96 228 217 212 207 209 213 217 223 227 233 232
112 248 293 294 289 281 256 162 283 195 284 233 263 287 256 94 347 339 22 357 346 338 332 327 323 316 285 293 296 311 341 356 353 10 134 214 199 202 216 222 215 228 220 210
181 289 307 307 310 357 8 308 311 298 14 279 271 268 307 324 317 20 7 351 342 331 322 311 315 311 299 293 307 250 301 336 338 339 15 194 190 197 189 229 204 202 201 176
151 188 196 260 272 287 293 290 288 292 268 277 263 285 307 316 17 353 334 323 318 313 305 301 293 289 300 298 301 280 249 252 313 329 345 358 205 203 205 188 188 161 160 155
182 239 247 264 274 282 287 290 291 289 257 246 292 302 311 346 345 324 318 324 322 311 297 281 288 296 306 313 304 335 291 227 232 287 315 313 343 228 194 175 160 152 140 138
173 253 255 271 281 282 279 279 289 283 294 279 305 292 292 346 331 315 310 314 306 300 297 296 292 279 283 286 295 300 301 298 203 233 281 301 328 189 186 152 156 145 137 134
255 269 279 273 284 289 288 242 262 289 289 264 281 282 7 325 322 307 318 308 303 294 290 290 285 277 284 284 271 262 280 301 222 202 252 287 349 161 149 147 148 145 135 142
233 251 250 280 278 250 219 95 316 267 274 273 280 322 325 313 311 303 298 287 286 290 288 285 280 277 275 270 272 281 273 274 284 202 237 264 5 150 139 135 134 134 138 136
214 240 303 295 276 279 288 23 261 222 289 20 351 323 313 316 312 302 236 305 298 288 281 277 274 268 265 268 261 257 266 263 281 209 231 251 313 142 141 134 133 137 134 131
8 332 229 271 289 290 296 358 284 273 270 13 334 316 313 320 303 298 320 314 306 299 289 278 266 255 248 251 256 234 236 251 272 218 222 228 294 140 139 137 133 132 133 130
323 319 271 303 286 271 86 11 335 13 308 325 321 308 308 295 279 294 301 298 298 291 292 290 270 235 229 232 243 223 216 221 244 231 192 175 166 141 137 131 131 134 128 127
302 283 291 328 273 280 355 354 346 259 286 313 299 304 301 290 294 296 297 298 300 301 307 291 289 229 211 211 220 218 218 204 226 211 152 139 142 136 135 133 131 129 131 128
305 325 287 265 253 301 318 74 283 318 248 303 302 309 301 297 299 304 304 305 303 304 303 289 326 193 195 200 204 205 219 205 215 181 148 148 140 141 139 135 135 132 135 133
298 305 287 316 321 307 319 341 5 357 287 314 308 306 304 299 302 306 303 304 307 309 284 184 145 173 192 193 195 205 221 203 212 164 142 145 137 136 136 135 138 136 136 134
285 297 303 286 276 307 2 349 351 322 321 321 315 305 300 302 305 307 304 307 310 313 328 219 179 178 193 198 179 211 199 190 174 148 145 142 139 137 129 128 137 138 141 144
237 302 293 310 301 278 327 1 342 338 329 320 312 307 305 304 303 304 303 309 313 328 335 338 207 164 161 188 192 193 193 180 150 143 142 139 135 129 122 115 107 120 131 137